DW3835 Weather Reports


Display with metric or nautical units.
time (UTC)temp
F
wind
direction
speed
MPH
gust
MPH
rain 1hr
in
rain 24hr
in
rain mn
in
humidity
%
barometer
mb
20260503203521 62 159 1.0 6.0 0.00 0.00 0.00 75 1010.9
20260503202526 62 156 0.0 4.0 0.00 0.00 0.00 73 1011.0
20260503201515 63 132 1.0 5.0 0.00 0.00 0.00 73 1011.1
20260503200502 63 168 1.0 5.0 0.00 0.00 0.00 72 1011.1
20260503195458 62 254 1.0 6.0 0.00 0.00 0.00 71 1011.2
20260503194443 61 167 1.0 6.0 0.00 0.00 0.00 73 1011.3
20260503193424 61 189 1.0 6.0 0.00 0.00 0.00 73 1011.3
20260503192359 60 161 0.0 4.0 0.00 0.00 0.00 76 1011.3
20260503191410 59 194 0.0 4.0 0.00 0.00 0.00 77 1011.4
20260503190348 59 54 0.0 4.0 0.00 0.00 0.00 79 1011.5
20260503184234 59 85 0.0 6.0 0.00 0.00 0.00 77 1011.5
20260503183215 60 117 1.0 6.0 0.00 0.00 0.00 77 1011.5
20260503182201 60 182 1.0 6.0 0.00 0.00 0.00 79 1011.5
20260503180025 57 138 1.0 5.0 0.00 0.00 0.00 86 1011.5
20260503173840 56 163 0.0 2.0 0.00 0.00 0.00 86 1011.3
20260503172835 56 163 0.0 5.0 0.00 0.00 0.00 84 1011.2
20260503171823 57 148 1.0 7.0 0.00 0.00 0.00 83 1011.2
20260503170821 57 148 1.0 7.0 0.00 0.00 0.00 82 1011.2
20260503150439 55 158 0.0 4.0 0.00 0.00 0.00 83 1010.7
20260503140210 54 160 0.0 1.0 0.00 0.00 0.00 85 1010.2
20260503131024 53 153 0.0 1.0 0.00 0.00 0.00 85 1009.5
20260503110559 54 166 0.0 3.0 0.00 0.00 0.00 84 1009.4
20260503100258 53 172 0.0 1.0 0.00 0.00 0.00 84 1009.3
20260503090119 54 146 0.0 1.0 0.00 0.00 0.00 84 1009.7
20260503080946 54 162 0.0 0.0 0.00 0.00 0.00 85 1010.0
20260503072803 54 165 0.0 3.0 0.00 0.00 0.00 84 1010.1
20260503071810 54 167 0.0 2.0 0.00 0.00 0.00 84 1010.2
20260503054637 54 163 0.0 2.0 0.00 0.00 0.00 83 1010.6
20260503053607 54 182 0.0 0.0 0.00 0.00 0.00 84 1010.6
20260503052600 54 91 0.0 0.0 0.00 0.00 0.00 83 1010.7
20260503051624 54 0 0.0 0.0 0.00 0.00 0.00 84 1010.6
20260503045547 54 183 0.0 3.0 0.00 0.00 0.00 83 1010.4
20260503043414 54 355 0.0 1.0 0.00 0.00 0.00 84 1010.4
20260503041237 55 46 0.0 0.0 0.00 0.00 0.00 83 1010.3
20260503040241 55 124 0.0 3.0 0.00 0.00 0.00 84 1010.1
20260503034107 55 162 0.0 3.0 0.00 0.00 0.00 84 1010.2
20260503031947 55 122 0.0 3.0 0.00 0.00 0.00 83 1009.9
20260503025809 55 117 0.0 3.0 0.00 0.00 0.00 83 1009.6
20260503024825 55 67 0.0 3.0 0.00 0.00 0.00 82 1009.5
20260503023814 55 167 0.0 0.0 0.00 0.00 0.00 82 1009.6
20260503022835 56 163 0.0 0.0 0.00 0.00 0.00 81 1009.5
20260503021841 56 42 0.0 1.0 0.00 0.00 0.00 81 1009.5
20260503020833 55 122 0.0 0.0 0.00 0.00 0.00 81 1009.6
20260503015811 56 124 0.0 3.0 0.00 0.00 0.00 80 1009.5
20260503014802 56 50 0.0 1.0 0.00 0.00 0.00 80 1009.6
20260503012614 57 82 0.0 3.0 0.00 0.00 0.00 78 1009.7
20260503011557 57 165 0.0 7.0 0.00 0.00 0.00 78 1009.6
20260503010605 58 97 0.0 7.0 0.00 0.00 0.00 78 1009.7
20260503004437 59 65 0.0 5.0 0.00 0.00 0.00 76 1009.7
20260503003416 59 226 0.0 5.0 0.00 0.00 0.00 76 1009.7
20260503002355 59 302 0.0 5.0 0.00 0.00 0.00 76 1009.8
20260503001344 60 159 0.0 4.0 0.00 0.00 0.00 76 1009.9
20260503000354 60 159 0.0 6.0 0.00 0.00 0.00 74 1009.8
20260502235359 60 174 1.0 6.0 0.00 0.00 0.00 74 1009.8
20260502234405 60 163 1.0 6.0 0.00 0.00 0.00 74 1010.0
20260502233345 60 151 1.0 4.0 0.00 0.00 0.00 73 1010.1
20260502225031 61 165 1.0 6.0 0.00 0.00 0.00 74 1010.6
20260502224046 62 148 1.0 7.0 0.00 0.00 0.00 72 1010.8
20260502223049 62 192 1.0 7.0 0.00 0.00 0.00 74 1010.9
20260502222028 61 188 1.0 7.0 0.00 0.00 0.00 73 1011.0
20260502221006 62 92 1.0 5.0 0.00 0.00 0.00 73 1011.2
20260502215953 61 115 1.0 7.0 0.00 0.00 0.00 74 1011.2
20260502215013 61 139 1.0 7.0 0.00 0.00 0.00 74 1011.4
20260502213944 61 196 2.0 8.0 0.00 0.00 0.00 73 1011.4
20260502212945 61 230 2.0 8.0 0.00 0.00 0.00 74 1011.4
20260502211947 62 82 1.0 8.0 0.00 0.00 0.00 75 1011.4
20260502210918 60 144 1.0 7.0 0.00 0.00 0.00 77 1011.5
20260502204755 59 172 1.0 6.0 0.00 0.00 0.00 79 1011.7